Weather History for Wildwood, NJ

Change the Weather History Date:

Tuesday, October 11, 2011

  Actual Average Record
Temperature  
Mean Temperature 64 °F -  
Max Temperature 71 °F 65 °F 80 °F (2010)
Min Temperature 57 °F 50 °F 44 °F (2012)
Degree Days  
Heating Degree Days 1    
Growing Degree Days 14 (Base 50)    
Moisture  
Dew Point 58 °F    
Average Humidity 81    
Maximum Humidity 94    
Minimum Humidity 69    
Precipitation  
Precipitation 0.00 in - - ()
Sea Level Pressure  
Sea Level Pressure 30.13 in    
Wind  
Wind Speed 4 mph (ENE)    
Max Wind Speed 13 mph    
Max Gust Speed 21 mph    
Visibility 10 miles    
Events      
Averages and records for this station are not official NWS values.
T = Trace of Precipitation, MM = Missing Value Source: NWS Daily Summary

Daily Weather History Graph

Daily Weather History Graph

Search for Another Location

Airport:

Trip Planner

Search our weather history database for the weather conditions in past years. The results will help you decide how hot, cold, wet, or windy it might be!

Date:

Astronomy

Oct. 11, 2011 Rise Set
Actual Time 7:04 AM EDT 6:27 PM EDT
Civil Twilight 6:38 AM EDT 6:54 PM EDT
Nautical Twilight 6:07 AM EDT 7:24 PM EDT
Astronomical Twilight 5:36 AM EDT 7:55 PM EDT
Moon 5:58 PM EDT (10/11) 6:40 AM EDT (10/11)
Length of Visible Light 12h 15m
Length of Day
11h 22m
Full, 100% of the Moon is Illuminated
Oct 11
Full
Oct 11
Full
Oct 19
Last Quarter
Oct 26
New
Nov 2
First Quarter

Hourly Weather History & Observations

Time (EDT) Temp. Dew Point Humidity Pressure Visibility Wind Dir Wind Speed Gust Speed Precip Events Conditions
12:15 AM 60.8 °F 55.4 °F 82% 30.16 in 10.0 mi Calm Calm - N/A   Clear
12:35 AM 59.0 °F 55.4 °F 88% 30.15 in 10.0 mi Calm Calm - N/A   Clear
12:55 AM 60.8 °F 55.4 °F 82% 30.15 in 10.0 mi Calm Calm - N/A   Clear
1:35 AM 60.8 °F 55.4 °F 82% 30.14 in 10.0 mi Calm Calm - N/A   Clear
1:55 AM 60.8 °F 55.4 °F 82% 30.14 in 10.0 mi Calm Calm - N/A   Clear
2:15 AM 60.8 °F 55.4 °F 82% 30.13 in 10.0 mi Calm Calm - N/A   Clear
2:35 AM 60.8 °F 55.4 °F 82% 30.13 in 10.0 mi Calm Calm - N/A   Clear
2:55 AM 60.8 °F 55.4 °F 82% 30.13 in 10.0 mi Calm Calm - N/A   Clear
3:15 AM 60.8 °F 57.2 °F 88% 30.12 in 10.0 mi Calm Calm - N/A   Clear
3:35 AM 60.8 °F 57.2 °F 88% 30.12 in 10.0 mi Calm Calm - N/A   Clear
3:55 AM 60.8 °F 57.2 °F 88% 30.12 in 10.0 mi Calm Calm - N/A   Clear
4:15 AM 60.8 °F 57.2 °F 88% 30.12 in 10.0 mi Calm Calm - N/A   Clear
4:35 AM 60.8 °F 57.2 °F 88% 30.12 in 10.0 mi Calm Calm - N/A   Clear
4:55 AM 60.8 °F 57.2 °F 88% 30.12 in 8.0 mi Calm Calm - N/A   Clear
5:15 AM 60.8 °F 55.4 °F 82% 30.12 in 10.0 mi Calm Calm - N/A   Clear
5:35 AM 59.0 °F 55.4 °F 88% 30.12 in 8.0 mi Calm Calm - N/A   Clear
6:15 AM 59.0 °F 55.4 °F 88% 30.12 in 8.0 mi Calm Calm - N/A   Clear
6:35 AM 59.0 °F 55.4 °F 88% 30.12 in 10.0 mi Calm Calm - N/A   Clear
6:55 AM 59.0 °F 55.4 °F 88% 30.13 in 6.0 mi Calm Calm - N/A   Clear
7:15 AM 57.2 °F 55.4 °F 94% 30.13 in 4.0 mi Calm Calm - N/A   Clear
7:35 AM 57.2 °F 55.4 °F 94% 30.14 in 7.0 mi Calm Calm - N/A   Clear
7:55 AM 59.0 °F 55.4 °F 88% 30.14 in 9.0 mi NNE 3.5 mph - N/A   Clear
8:15 AM 60.8 °F 55.4 °F 82% 30.15 in 10.0 mi NE 3.5 mph - N/A   Clear
8:35 AM 64.4 °F 57.2 °F 77% 30.15 in 10.0 mi NE 6.9 mph - N/A   Clear
9:15 AM 68.0 °F 60.8 °F 78% 30.15 in 10.0 mi ENE 6.9 mph - N/A   Clear
9:35 AM 69.8 °F 62.6 °F 78% 30.16 in 10.0 mi East 9.2 mph - N/A   Clear
9:55 AM 71.6 °F 60.8 °F 69% 30.15 in 10.0 mi ENE 11.5 mph 16.1 mph N/A   Clear
10:15 AM 69.8 °F 60.8 °F 73% 30.16 in 10.0 mi ENE 9.2 mph - N/A   Clear
10:55 AM 69.8 °F 60.8 °F 73% 30.16 in 10.0 mi ENE 10.4 mph 16.1 mph N/A   Clear
11:15 AM 71.6 °F 62.6 °F 73% 30.16 in 10.0 mi ENE 11.5 mph 16.1 mph N/A   Clear
11:35 AM 71.6 °F 62.6 °F 73% 30.16 in 10.0 mi ENE 10.4 mph 20.7 mph N/A   Clear
11:55 AM 71.6 °F 60.8 °F 69% 30.16 in 10.0 mi ENE 12.7 mph 19.6 mph N/A   Clear
12:15 PM 69.8 °F 60.8 °F 73% 30.16 in 10.0 mi ENE 11.5 mph 17.3 mph N/A   Clear
12:35 PM 71.6 °F 60.8 °F 69% 30.15 in 10.0 mi ENE 10.4 mph 16.1 mph N/A   Clear
12:55 PM 69.8 °F 60.8 °F 73% 30.15 in 10.0 mi ENE 12.7 mph 18.4 mph N/A   Clear
1:15 PM 69.8 °F 60.8 °F 73% 30.15 in 10.0 mi NE 12.7 mph - N/A   Clear
1:35 PM 68.0 °F 60.8 °F 78% 30.14 in 10.0 mi ENE 8.1 mph 17.3 mph N/A   Clear
1:55 PM 68.0 °F 60.8 °F 78% 30.14 in 10.0 mi ENE 10.4 mph - N/A   Clear
2:15 PM 66.2 °F 60.8 °F 83% 30.14 in 10.0 mi ENE 9.2 mph - N/A   Clear
2:35 PM 66.2 °F 59.0 °F 78% 30.13 in 10.0 mi NE 9.2 mph - N/A   Clear
2:55 PM 66.2 °F 60.8 °F 83% 30.13 in 10.0 mi NE 9.2 mph - N/A   Clear
3:15 PM 66.2 °F 59.0 °F 78% 30.13 in 10.0 mi ENE 10.4 mph 17.3 mph N/A   Clear
3:35 PM 66.2 °F 59.0 °F 78% 30.13 in 10.0 mi NE 9.2 mph - N/A   Clear
4:15 PM 66.2 °F 59.0 °F 78% 30.12 in 10.0 mi ENE 10.4 mph 20.7 mph N/A   Clear
4:35 PM 66.2 °F 59.0 °F 78% 30.12 in 10.0 mi ENE 11.5 mph - N/A   Clear
4:55 PM 66.2 °F 59.0 °F 78% 30.12 in 10.0 mi NE 10.4 mph - N/A   Clear
5:15 PM 66.2 °F 59.0 °F 78% 30.12 in 10.0 mi ENE 10.4 mph 17.3 mph N/A   Clear
5:35 PM 64.4 °F 59.0 °F 83% 30.11 in 10.0 mi ENE 10.4 mph 17.3 mph N/A   Clear
5:55 PM 64.4 °F 59.0 °F 83% 30.11 in 10.0 mi NE 9.2 mph - N/A   Clear
6:15 PM 64.4 °F 59.0 °F 83% 30.10 in 10.0 mi NE 9.2 mph - N/A   Partly Cloudy
6:55 PM 64.4 °F 59.0 °F 83% 30.10 in 10.0 mi NE 10.4 mph 17.3 mph N/A   Overcast
7:35 PM 64.4 °F 59.0 °F 83% 30.10 in 10.0 mi NE 10.4 mph - N/A   Overcast
7:55 PM 64.4 °F 59.0 °F 83% 30.09 in 10.0 mi NE 12.7 mph 19.6 mph N/A   Overcast
8:15 PM 64.4 °F 60.8 °F 88% 30.09 in 10.0 mi NE 10.4 mph 17.3 mph N/A   Overcast
8:35 PM 64.4 °F 59.0 °F 83% 30.09 in 10.0 mi ENE 12.7 mph - N/A   Mostly Cloudy
8:55 PM 64.4 °F 59.0 °F 83% 30.09 in 10.0 mi ENE 11.5 mph 19.6 mph N/A   Overcast
9:15 PM 64.4 °F 60.8 °F 88% 30.09 in 10.0 mi ENE 12.7 mph 19.6 mph N/A   Overcast
9:35 PM 64.4 °F 60.8 °F 88% 30.09 in 10.0 mi ENE 12.7 mph 18.4 mph N/A   Overcast
9:55 PM 66.2 °F 60.8 °F 83% 30.09 in 10.0 mi ENE 12.7 mph 18.4 mph N/A   Overcast
10:15 PM 66.2 °F 60.8 °F 83% 30.09 in 10.0 mi ENE 12.7 mph 20.7 mph N/A   Overcast
10:35 PM 66.2 °F 60.8 °F 83% 30.09 in 10.0 mi ENE 11.5 mph 18.4 mph N/A   Overcast
10:55 PM 66.2 °F 60.8 °F 83% 30.10 in 10.0 mi East 11.5 mph 16.1 mph N/A   Overcast
11:15 PM 66.2 °F 60.8 °F 83% 30.11 in 10.0 mi East 11.5 mph 18.4 mph N/A   Overcast
11:35 PM 66.2 °F 60.8 °F 83% 30.11 in 10.0 mi East 10.4 mph - N/A   Overcast
11:55 PM 66.2 °F 60.8 °F 83% 30.10 in 10.0 mi ENE 10.4 mph 18.4 mph N/A   Overcast